Location: Peebles
(55.6412°N, 3.1714°W)
Time: 15:01:58
(UTC+01:00)

FLOCK 4S 45 - Pass Details

Date: 03 July 2022
Orbit: 507 x 523 km, 97.4° (Epoch: 17 August)

Event Time Altitude Azimuth Distance (km) Brightness Sun altitude
Rises 23:15:21 0° 212° (SSW) 2,656 ? -7.3°
Reaches altitude 10° 23:18:14 10° 236° (WSW) 1,773 ? -7.5°
Maximum altitude 23:20:28 15° 272° (W) 1,490 ? -7.6°
Drops below altitude 10° 23:22:43 10° 308° (NW) 1,780 ? -7.8°
Sets 23:25:38 0° 333° (NNW) 2,674 ? -8.0°
